{"data":{"norad_id":60940,"intl_designator":"2024-155S","name":"STARLINK-32251","alt_names":[],"object_type":"PAYLOAD","status":"ACTIVE","operator":null,"country":"US","launch_date":"2024-08-31","launch_site_code":"AFWTR","launch_vehicle":null,"mission":null,"orbit_class":"UNKNOWN","rcs_meters":null,"size_class":null,"mass_kg":null,"dimensions":null,"purposes":["comms"],"wikipedia_slug":null,"has_3d_model":false,"image_url":null,"decayed_at":null,"tle_current":{"epoch":"2026-05-25T03:12:57.642336Z","epoch_age_seconds":66587,"freshness":"FRESH","line1":"1 60940U 24155S   26145.13400049  .00000296  00000+0  22124-4 0  9996","line2":"2 60940  53.1591 134.6768 0000654  57.8859 302.2205 15.30195249 98041","mean_motion":15.30195249,"eccentricity":6.54e-5,"inclination_deg":53.1591,"raan_deg":134.6768,"arg_perigee_deg":57.8859,"mean_anomaly_deg":302.2205,"bstar":2.2124e-5,"rev_number":9804,"period_min":94.105637887783,"perigee_km":474.78104493257,"apogee_km":475.67746523874,"semimajor_km":6853.3662550857,"source":"CELESTRAK","updated_at":"2026-05-25T13:38:19.320963Z"}}}